This is the latest recevied weather packets stored in our database for station/object HOTSPR-3. If no packets are shown the sender has not sent any weather packets the latest 1 day(s).
| Time | Temp. | Humidity | Pressure | Rain* | Wind** | Luminosity | Snow |
|---|---|---|---|---|---|---|---|
| 1778105748 | 11.11° C | 100% | 1011.3 hPa | 0 mm | - | - | - |
| 1778105448 | 11.11° C | 100% | 1011.3 hPa | 0 mm | - | - | - |
| 1778104247 | 11.11° C | 100% | 1010.6 hPa | 0 mm | - | - | - |
| 1778103647 | 11.11° C | 100% | 1010.7 hPa | 0 mm | - | - | - |
| 1778102146 | 11.11° C | 100% | 1010.8 hPa | 0 mm | - | - | - |
| 1778101845 | 11.11° C | 100% | 1011.1 hPa | 0 mm | - | - | - |
| 1778101245 | 11.11° C | 100% | 1010.9 hPa | 0 mm | - | - | - |
| 1778100945 | 11.11° C | 100% | 1011 hPa | 0 mm | - | - | - |
| 1778099144 | 11.11° C | 100% | 1011 hPa | 0 mm | - | - | - |
| 1778098844 | 11.11° C | 100% | 1010.8 hPa | 0 mm | - | - | - |
| 1778097643 | 11.11° C | 100% | 1011 hPa | 246.89 mm | - | - | - |
| 1778097343 | 11.11° C | 100% | 1010.9 hPa | 246.89 mm | - | - | - |
| 1778095842 | 11.11° C | 100% | 1011.8 hPa | 246.89 mm | - | - | - |
| 1778095542 | 11.11° C | 100% | 1011.9 hPa | 246.89 mm | - | - | - |
| 1778094941 | 11.11° C | 100% | 1012 hPa | 246.89 mm | - | - | - |
| 1778094041 | 10.56° C | 100% | 1012.9 hPa | 246.89 mm | - | - | - |
| 1778093741 | 10° C | 100% | 1013.2 hPa | 246.63 mm | - | - | - |
| 1778092240 | 10° C | 100% | 1011.8 hPa | 246.38 mm | - | - | - |
| 1778091940 | 10° C | 100% | 1012.9 hPa | 155.96 mm | - | - | - |
| 1778090739 | 10° C | 100% | 1011.9 hPa | 149.35 mm | - | - | - |
| 1778089838 | 10° C | 100% | 1013.6 hPa | 136.91 mm | - | - | - |
| 1778088337 | 10.56° C | 100% | 1012.4 hPa | 113.54 mm | - | - | - |
| 1778084735 | 10.56° C | 100% | 1012.3 hPa | 110.49 mm | - | - | - |
| 1778084435 | 11.11° C | 100% | 1012.4 hPa | 110.49 mm | - | - | - |
| 1778082634 | 11.11° C | 100% | 1011.6 hPa | 110.49 mm | - | - | - |
* Rain since midnight (hover to see other rain measurements)
** Current wind speed in m/s (hover to see current wind gust speed)